Location: *
(46.4000°N, 12.6667°E)
Time: 20:01:54
(UTC+00:00)

CZ-4C R/B - Pass Details

Date: 22 June 2021
Orbit: 606 x 1396 km, 63.4° (Epoch: 28 July)

Event Time Altitude Azimuth Distance (km) Brightness Sun altitude
Exits shadow 00:31:05 - 137° (SE) 2,210 4.1 -17.9°
Reaches altitude 10° 00:31:26 10° 133° (SE) 2,155 4.1 -17.8°
Maximum altitude 00:33:43 13° 105° (ESE) 2,020 4.2 -17.7°
Drops below altitude 10° 00:36:10 10° 77° (ENE) 2,347 5.0 -17.6°
Sets 00:40:07 0° 52° (NE) 3,464 6.4 -17.3°
